Regional Weather Roundup
Issued by NWS

Home | Current Version | Previous Version | Text Only | Print | Product List | Glossary Off
Versions: 1 2 3 4 5 6 7 8 9 10 11 12 13 14 15 16 17 18 19 20 21 22 23 24 25 26 27 28 29 30 31 32 33 34 35 36 37 38 39 40 41 42 43 44 45 46 47 48 49 50

000
ASUS43 KLOT 011503
RWRIL

ILLINOIS REGIONAL WEATHER ROUNDUP
NATIONAL WEATHER SERVICE CHICAGO/ROMEOVILLE IL
1000 AM CDT SUN MAY 01 2016

NOTE: "FAIR" INDICATES FEW OR NO CLOUDS BELOW 12,000 FEET WITH NO
SIGNIFICANT WEATHER AND/OR OBSTRUCTIONS TO VISIBILITY.

* THESE STATIONS ARE NOT UNDER NWS QUALITY CONTROL. THEY ALSO MAY NOT
  REPORT WEATHER SUCH AS PRECIPITATION OR FOG.

ILZ001-002-007-009-015-016-024-011600-
NORTHWEST ILLINOIS

CITY           SKY/WX    TMP DP  RH WIND       PRES   REMARKS
MOLINE         CLOUDY    49  45  86 NE10      29.97S
STERLING*      CLOUDY    46  45  93 NE10      30.00S
$$

ILZ003-004-008-010-011-017-018-011600-
NORTH CENTRAL ILLINOIS

CITY           SKY/WX    TMP DP  RH WIND       PRES   REMARKS
ROCKFORD       CLOUDY    47  43  86 NE10      30.04S
FREEPORT*      CLOUDY    44  43  95 NE16      30.03F
DE KALB*       CLOUDY    45  44  97 NE16      30.01S FOG
$$

ILZ005-006-012>014-019>023-011600-
NORTHEAST ILLINOIS

CITY           SKY/WX    TMP DP  RH WIND       PRES   REMARKS
CHICAGO-OHARE  FOG       44  44 100 NE12      30.00S VSB 1/4
CHICAGO-MIDWAY CLOUDY    45  43  93 N13       30.00R FOG
AURORA         CLOUDY    47  44  90 NE12      30.00S FOG
LANSING*       FOG       46  46 100 N6        29.98S VSB 1
WAUKEGAN       FOG       44  43  96 NE13G23   30.01S VSB 1
DUPAGE AIRPORT CLOUDY    45  42  89 NE15      29.99S FOG
WHEELING       CLOUDY    44  43  96 N12G18    30.02R FOG
NORTHERLY ISL    N/A     44  42  93 MISG        N/A
NORTHERLY ISL    N/A     44  42  93 MISG        N/A
$$

LMZ740>746-011600-
SOUTHERN LAKE MICHIGAN

STATION/POSITION SKY/WX   TEMP    WIND        PRES    VSBY  WAVE
                          AIR SEA DIR/SP/G                  HT/PER
                          (F)     (DEG/KT/KT) (MB)    (MI)  (FT/S)
SOUTHERN BUOY              42 40   40/ 14/ 16 1016.0          3/ 4
HARRISON CRIB              43      30/ 17/ 18   N/A
BURNHAM HARBOR             43     340/  9/ 12   N/A
CALUMET HARBOR             44      20/ 14/ 18 1014.8R
BURNS HARBOR               44      20/ 16/ 17 1015.6R
MICHIGAN CITY              45      10/ 14/ 15   N/A
ST. JOSEPH                 47 49                N/A           2/ 5
$$

ILZ025>027-034>036-040-047-049-050-058-095>099-011600-
WEST-CENTRAL ILLINOIS

CITY           SKY/WX    TMP DP  RH WIND       PRES   REMARKS
QUINCY         CLOUDY    53  50  89 E7        29.94S FOG
MACOMB*        CLOUDY    50  50 100 E10       29.99R FOG
$$

ILZ028>032-037-038-041>044-048-051>054-059>061-011600-
CENTRAL ILLINOIS

CITY           SKY/WX    TMP DP  RH WIND       PRES   REMARKS
BLOOMINGTON    CLOUDY    51  51 100 NE12      29.96F FOG
DECATUR        CLOUDY    58  55  90 NE6       29.94S
PEORIA         CLOUDY    51  49  92 NE8       29.96R FOG
SPRINGFIELD    CLOUDY    53  52  96 N5        29.96R FOG
TAYLORVILLE    NOT AVBL
$$

ILZ033-039-045-046-055>057-062-063-011600-
EAST-CENTRAL ILLINOIS

CITY           SKY/WX    TMP DP  RH WIND       PRES   REMARKS
CHAMPAIGN      CLOUDY    55  54  96 NE6       29.94R FOG
MATTOON        CLOUDY    57  53  86 N5        29.94R FOG
$$

ILZ079-100>102-011600-
SOUTHWEST ILLINOIS

CITY           SKY/WX    TMP DP  RH WIND       PRES   REMARKS
ALTON          CLOUDY    63  57  82 NW6       29.92S
BELLEVILLE     CLOUDY    64  64 100 SW3       29.91R
CAHOKIA*       CLOUDY    65  58  78 CALM      29.91S
SPARTA*        CLOUDY    64  60  88 SW7       29.93R
$$

ILZ064>066-069>071-074>076-080>082-084>086-088>090-092>094-011600-
SOUTH-CENTRAL ILLINOIS

CITY           SKY/WX    TMP DP  RH WIND       PRES   REMARKS
CARBONDALE     SUNNY     69  61  75 SW5       29.91S
MARION         MOSUNNY   72  64  78 S12       29.91S
MT. VERNON     SUNNY     70  61  73 SW6       29.92S
SALEM*         MOSUNNY   71  60  70 SW5       29.91S
$$

ILZ067-068-072-073-078-083-087-091-011600-
SOUTHEAST ILLINOIS

CITY           SKY/WX    TMP DP  RH WIND       PRES   REMARKS
LAWRENCEVILLE  SUNNY     69  60  73 N5          N/A
FLORA*         SUNNY     70  61  72 CALM      29.92S
HARRISBURG*    SUNNY     72  63  74 SW6       29.91S
ROBINSON*      SUNNY     66  59  77 N5        29.94S
$$

ABBREVIATIONS USED IN REMARKS
   TC - TEMPERATURE IN CELSIUS
  WCI - WIND CHILL INDEX
   HX - HEAT INDEX
  VSB - VISIBILITY
$$





USA.gov is the U.S. government's official web portal to all federal, state and local government web resources and services.